Wind_Speed
10 8 7 6 5 4 5 4 3 3 3 4 5 6 5 6 7 8 8 8 9 9 8 9 9 9 8 8 8 8 8 7 7 7 7 6 6 6 6 6 5 5 4 5
10 9 8 7 6 5 6 6 4 4 4 5 6 6 5 5 6 7 8 9 9 9 8 8 9 8 8 8 8 8 8 7 7 7 6 6 6 6 6 6 5 5 5 5
9 9 8 8 7 7 6 7 6 6 5 5 7 7 6 5 6 7 8 9 9 9 9 8 9 8 8 8 9 9 8 8 8 7 7 6 7 7 6 5 5 5 5 5
12 11 9 9 9 8 6 6 8 7 6 6 7 8 7 6 6 6 8 9 9 10 10 9 9 8 9 9 9 9 9 8 8 8 7 7 7 7 7 6 6 5 5 5
12 11 10 10 10 9 8 8 9 9 7 7 7 9 9 9 8 7 8 8 9 10 11 11 11 10 10 10 10 9 8 8 8 8 8 8 8 8 7 7 6 5 5 5
12 12 12 11 10 10 10 10 10 11 11 9 8 10 11 10 10 9 9 9 9 10 11 11 11 11 11 11 10 9 9 8 8 8 8 8 8 7 7 7 7 7 7 7
13 14 13 12 12 12 11 11 11 12 14 11 10 11 10 10 10 9 9 10 11 11 11 12 11 12 12 11 11 11 10 9 9 9 9 9 9 9 8 9 9 9 9 10
14 14 14 14 14 12 12 13 13 14 14 12 12 13 11 10 9 9 10 10 11 12 12 13 13 12 12 12 11 12 11 11 11 11 11 10 10 10 10 10 11 11 11 11
14 14 14 15 14 14 13 14 14 14 14 14 14 13 13 11 10 10 11 11 12 14 14 14 14 14 13 12 13 14 13 12 13 13 12 12 11 11 12 12 11 11 12 12
16 14 13 14 16 15 15 14 16 16 15 15 15 15 13 12 12 12 12 13 13 14 14 15 15 14 13 13 14 14 13 13 13 14 13 13 12 13 13 12 12 12 12 12
16 15 14 15 17 16 16 16 16 17 17 17 18 16 14 14 14 14 15 15 15 15 15 16 15 15 16 15 15 15 15 14 14 14 14 13 13 13 13 13 13 14 14 14
17 17 16 16 16 17 17 17 18 19 19 20 20 19 17 16 16 16 17 17 17 17 18 17 17 17 16 16 16 17 16 15 15 15 15 14 15 15 15 15 15 15 16 17
20 20 19 18 19 20 21 19 20 20 20 20 20 20 19 18 18 18 18 18 19 18 18 17 17 18 17 17 17 16 16 17 16 16 16 17 17 17 16 16 17 17 18 18
22 23 23 22 21 21 21 22 22 22 22 22 22 21 21 20 19 19 19 19 18 19 19 20 20 21 19 18 18 18 18 19 18 18 18 18 18 18 18 18 18 18 19 19
24 25 25 24 23 23 23 23 23 23 24 24 23 22 21 21 21 21 20 20 20 21 21 21 20 19 19 19 19 19 20 20 20 20 20 20 20 20 20 20 20 20 20 20
26 26 27 26 26 26 25 25 24 23 24 25 24 23 21 21 22 22 22 23 22 23 23 21 21 21 21 20 20 20 20 21 21 21 21 20 20 21 21 21 22 22 21 21
28 27 29 28 28 28 28 26 25 24 23 24 24 23 23 22 23 23 23 24 24 24 23 22 22 22 22 21 21 21 22 22 21 22 22 22 22 23 23 22 22 22 22 23
30 31 31 30 29 30 28 26 26 24 24 23 24 24 25 24 24 24 24 23 24 24 23 22 22 22 23 24 23 22 23 24 24 23 23 23 24 25 24 24 25 25 25 25
30 31 32 32 31 30 29 27 27 27 27 25 25 26 26 26 25 26 26 25 25 25 24 23 23 24 24 24 24 23 24 25 25 25 25 25 26 26 26 26 27 27 27 27
30 31 32 32 33 31 30 29 28 28 28 26 25 26 26 26 27 26 26 26 27 27 26 25 24 25 25 25 26 25 25 25 26 26 27 27 27 27 27 27 28 28 28 28
30 30 31 31 31 30 29 28 28 29 29 28 27 26 27 27 27 26 26 26 27 27 27 26 26 27 26 26 26 26 26 26 27 27 28 28 27 28 28 28 28 28 28 29
30 30 31 31 30 30 30 29 29 29 28 29 28 27 27 27 28 28 27 28 28 28 28 29 28 28 28 28 28 28 27 27 28 28 29 29 29 29 29 29 29 29 29 30
32 32 31 32 32 31 30 30 30 31 30 29 28 29 28 27 27 28 28 29 28 28 29 30 30 30 30 30 30 29 29 29 29 29 30 30 31 31 30 30 31 30 30 31
31 32 32 32 32 32 32 31 30 30 31 30 29 28 27 27 28 29 29 28 28 29 30 30 30 30 30 31 30 30 30 30 30 30 31 31 31 31 31 31 31 31 31 31
31 31 31 32 32 32 32 31 31 31 30 29 29 30 29 29 29 29 30 30 30 30 29 30 30 30 31 31 31 31 30 30 30 30 31 31 31 31 32 32 32 32 32 33
29 31 32 31 31 31 31 30 29 30 30 29 29 29 29 29 30 29 29 30 31 32 32 32 32 31 30 30 31 31 31 31 31 30 30 30 31 31 31 31 31 32 32 32
Wind_Direction
211 202 198 206 217 217 223 228 240 263 301 313 326 339 343 345 348 350 352 357 1 3 6 7 4 360 356 353 352 354 354 358 359 357 353 350 343 342 343 343 345 346 343 338
216 214 219 216 230 233 234 236 245 253 267 290 305 317 326 323 331 339 343 348 351 351 353 352 350 352 354 350 348 345 345 349 349 346 343 339 337 337 336 336 332 334 335 332
217 219 221 220 223 231 241 249 255 251 254 272 292 296 298 302 315 328 336 342 348 348 344 344 350 348 345 343 339 337 336 338 339 338 335 328 329 333 332 332 327 326 328 324
218 224 227 224 227 233 242 253 252 241 252 268 291 291 294 291 295 313 329 334 338 340 339 335 338 340 338 335 331 330 328 326 327 327 326 321 320 322 321 316 313 311 313 316
219 222 223 225 231 241 253 255 253 245 248 258 276 286 293 287 294 303 310 317 326 330 330 327 326 327 332 331 325 325 323 321 322 322 318 318 314 311 307 301 300 300 305 308
227 229 229 228 229 237 248 254 251 248 255 257 264 278 288 287 295 297 302 308 312 317 324 323 314 316 320 321 318 316 318 320 324 322 320 323 321 312 302 297 297 298 299 298
229 234 231 229 230 233 242 253 254 250 251 258 265 266 280 284 287 290 303 305 306 309 313 315 309 304 307 309 312 313 312 311 314 318 314 313 312 311 306 300 292 293 294 294
231 230 231 232 233 233 238 250 255 255 253 254 262 265 269 281 294 296 300 304 308 313 311 311 309 306 304 303 308 311 306 306 309 311 307 306 305 301 300 297 290 288 291 293
233 232 229 234 233 236 237 247 252 255 253 255 256 260 265 277 288 289 296 302 308 312 310 309 311 307 305 308 310 310 303 304 307 309 304 303 296 296 297 291 291 292 292 292
238 238 231 233 231 233 242 248 248 252 257 259 261 259 262 273 280 285 291 297 304 307 305 303 303 304 303 306 306 306 301 301 300 303 304 304 298 296 293 291 290 292 295 296
238 241 236 234 233 233 238 243 248 253 257 264 265 262 265 265 272 281 286 290 294 297 297 296 296 298 303 305 305 304 300 299 302 304 302 300 296 295 296 297 295 293 293 296
235 240 239 234 235 238 240 243 250 255 259 263 266 268 267 268 270 279 282 283 291 298 298 296 295 299 302 304 304 305 301 298 300 302 301 299 299 297 296 296 294 293 294 293
231 236 239 238 235 235 239 243 250 255 260 263 266 270 272 273 275 279 283 285 289 293 296 296 296 296 299 301 302 300 298 299 299 301 300 299 298 296 295 296 295 293 293 293
233 237 240 241 243 244 243 246 252 257 260 263 269 273 274 276 279 281 281 282 286 290 293 295 295 295 294 295 295 297 298 299 299 298 299 299 298 296 296 297 296 295 293 292
235 238 240 242 244 246 247 250 254 259 262 265 269 273 273 274 280 283 283 282 284 288 293 295 294 293 293 294 294 295 296 296 296 296 296 297 297 296 295 294 294 293 293 291
236 240 241 241 241 245 248 251 256 261 265 267 267 269 270 273 277 282 282 284 287 289 291 293 293 292 292 293 292 291 293 295 294 294 294 294 295 295 293 292 292 292 292 292
238 241 243 243 241 245 247 250 254 261 266 268 270 272 274 276 278 280 282 285 288 288 289 290 292 290 290 289 288 290 294 294 293 292 291 291 292 293 292 290 289 290 291 291
238 240 244 245 244 246 249 251 255 260 264 267 269 271 273 277 278 279 279 282 284 285 284 286 287 288 289 289 288 290 291 293 292 290 290 291 291 291 290 288 288 289 289 289
237 240 243 244 246 248 249 252 256 262 266 267 271 273 277 278 277 277 280 283 285 289 290 289 289 288 289 289 289 290 291 293 293 293 291 291 291 292 291 289 288 287 287 288
238 240 244 247 248 249 252 254 257 261 264 267 270 273 276 276 276 277 280 284 285 288 289 287 285 287 289 289 289 290 290 290 292 291 290 290 291 291 290 290 289 287 287 286
240 241 244 247 250 252 254 255 258 261 265 267 270 271 273 275 275 277 279 281 284 287 286 285 285 286 288 288 289 289 290 291 291 290 290 290 289 289 290 289 289 288 288 287
240 242 245 248 251 254 257 258 259 263 265 266 269 270 272 274 275 276 280 282 282 283 284 284 285 285 286 287 287 287 288 289 290 290 290 290 288 289 289 289 288 287 288 288
240 242 244 247 251 255 258 259 261 261 263 264 267 271 273 274 276 278 279 280 280 282 282 283 283 285 285 285 286 285 287 288 288 288 289 289 289 288 288 288 288 288 289 288
241 243 246 248 251 255 258 260 263 265 265 266 268 270 273 273 274 276 279 281 281 283 284 285 285 285 285 285 285 285 286 286 287 287 288 289 289 289 288 288 288 288 288 288
242 244 247 250 254 256 258 261 264 265 268 270 270 270 272 272 273 276 277 279 281 281 283 283 284 285 285 286 286 286 287 287 287 288 288 289 289 289 290 290 291 289 288 288
244 245 246 250 254 256 259 261 264 266 269 270 270 272 273 274 274 275 277 278 278 279 281 283 284 285 285 286 287 287 288 289 289 289 289 289 289 289 290 290 290 291 290 289
Height
5911 5913 5914 5914 5914 5915 5914 5914 5914 5915 5914 5913 5913 5912 5912 5911 5910 5910 5909 5908 5907 5905 5904 5903 5903 5901 5900 5898 5897 5895 5894 5892 5891 5890 5889 5888 5887 5885 5884 5883 5882 5881 5880 5879
5910 5911 5911 5911 5912 5913 5913 5913 5913 5913 5913 5912 5912 5911 5911 5910 5909 5909 5908 5907 5906 5905 5904 5903 5902 5901 5899 5898 5896 5895 5893 5892 5890 5889 5888 5887 5886 5884 5883 5882 5881 5880 5879 5878
5908 5910 5909 5909 5910 5911 5912 5912 5912 5911 5911 5910 5910 5910 5909 5909 5908 5908 5907 5906 5905 5904 5903 5903 5901 5900 5898 5897 5895 5894 5892 5891 5890 5888 5887 5886 5884 5883 5882 5881 5880 5879 5878 5877
5905 5906 5906 5907 5908 5909 5910 5910 5911 5910 5910 5909 5909 5908 5908 5907 5907 5906 5906 5905 5904 5903 5902 5901 5900 5898 5897 5896 5894 5892 5891 5890 5888 5887 5885 5884 5883 5882 5881 5879 5878 5877 5876 5875
5903 5904 5904 5905 5906 5907 5908 5908 5908 5908 5908 5907 5907 5906 5907 5906 5905 5905 5904 5903 5902 5901 5900 5899 5898 5897 5896 5894 5892 5891 5889 5888 5887 5885 5884 5882 5881 5880 5879 5878 5876 5875 5874 5873
5900 5900 5901 5902 5904 5904 5905 5906 5905 5905 5905 5906 5906 5905 5904 5904 5904 5903 5902 5901 5900 5899 5898 5897 5896 5895 5894 5892 5890 5889 5887 5886 5885 5883 5882 5880 5879 5878 5877 5875 5874 5873 5872 5871
5896 5897 5898 5899 5900 5901 5902 5903 5903 5903 5902 5903 5903 5901 5902 5902 5901 5900 5899 5899 5898 5897 5896 5895 5893 5892 5891 5889 5888 5886 5885 5883 5882 5881 5879 5878 5877 5875 5874 5873 5872 5871 5870 5869
5892 5894 5895 5896 5897 5898 5899 5900 5901 5900 5900 5900 5899 5898 5899 5899 5898 5897 5897 5896 5895 5895 5893 5892 5890 5889 5887 5885 5884 5883 5882 5881 5879 5877 5876 5875 5874 5873 5871 5870 5868 5867 5866 5865
5888 5890 5892 5893 5894 5895 5895 5896 5897 5897 5896 5896 5895 5896 5895 5895 5895 5895 5894 5893 5893 5892 5891 5889 5887 5886 5884 5882 5881 5880 5879 5877 5876 5874 5873 5871 5869 5869 5868 5866 5865 5864 5863 5862
5883 5885 5887 5889 5890 5891 5892 5892 5893 5892 5892 5891 5892 5892 5893 5892 5892 5892 5892 5891 5890 5889 5888 5886 5884 5882 5881 5880 5878 5877 5875 5874 5872 5870 5869 5868 5867 5865 5864 5863 5862 5861 5860 5858
5879 5881 5883 5884 5885 5886 5888 5888 5888 5888 5888 5888 5887 5890 5890 5890 5889 5889 5889 5888 5886 5885 5883 5882 5880 5879 5878 5877 5875 5874 5872 5870 5868 5866 5865 5865 5863 5862 5860 5859 5858 5857 5855 5854
5874 5876 5878 5880 5882 5882 5883 5883 5883 5884 5884 5884 5883 5887 5885 5885 5885 5884 5884 5883 5882 5881 5879 5878 5877 5875 5874 5872 5871 5870 5868 5866 5864 5863 5862 5861 5860 5858 5857 5855 5854 5852 5851 5850
5870 5871 5873 5875 5878 5877 5877 5878 5878 5879 5879 5879 5879 5882 5880 5880 5880 5880 5879 5878 5877 5877 5876 5874 5873 5871 5869 5868 5867 5866 5864 5863 5861 5859 5858 5856 5855 5854 5852 5850 5849 5848 5846 5845
5865 5866 5868 5870 5871 5872 5872 5873 5874 5874 5874 5873 5874 5875 5875 5874 5874 5874 5873 5872 5872 5872 5871 5870 5868 5867 5865 5863 5862 5861 5860 5858 5857 5855 5853 5852 5850 5849 5847 5846 5844 5842 5841 5840
5858 5860 5861 5863 5865 5866 5867 5868 5869 5869 5869 5869 5869 5869 5869 5869 5869 5868 5868 5867 5867 5867 5866 5865 5863 5861 5860 5858 5857 5856 5855 5853 5851 5850 5848 5847 5844 5843 5842 5840 5839 5837 5835 5834
5852 5853 5855 5857 5859 5860 5861 5862 5862 5863 5863 5863 5863 5863 5864 5863 5863 5863 5862 5862 5862 5862 5861 5859 5858 5856 5855 5853 5852 5850 5849 5847 5846 5844 5843 5841 5839 5838 5836 5835 5833 5832 5830 5828
5845 5847 5848 5850 5853 5853 5854 5856 5856 5857 5857 5857 5857 5859 5858 5858 5858 5858 5857 5856 5856 5856 5855 5853 5852 5851 5849 5847 5846 5845 5844 5841 5840 5838 5837 5835 5834 5832 5830 5829 5827 5825 5823 5822
5838 5840 5841 5843 5846 5846 5850 5850 5850 5851 5851 5851 5851 5852 5852 5852 5852 5851 5851 5850 5850 5849 5848 5847 5846 5845 5843 5841 5839 5838 5837 5835 5834 5832 5830 5829 5827 5825 5823 5821 5820 5818 5816 5814
5831 5833 5834 5836 5837 5839 5842 5843 5843 5844 5844 5845 5845 5845 5845 5845 5844 5844 5844 5844 5843 5842 5842 5841 5840 5838 5837 5835 5833 5831 5830 5829 5827 5825 5823 5821 5820 5818 5816 5814 5812 5810 5808 5806
5824 5826 5828 5829 5830 5832 5835 5836 5836 5838 5837 5839 5838 5838 5838 5838 5838 5838 5837 5836 5836 5835 5835 5834 5832 5830 5829 5828 5826 5825 5824 5822 5820 5818 5816 5814 5812 5810 5808 5806 5804 5802 5800 5798
5816 5818 5819 5821 5822 5824 5827 5828 5830 5831 5832 5832 5832 5832 5831 5831 5831 5831 5830 5829 5829 5827 5827 5826 5825 5823 5822 5820 5819 5818 5816 5814 5812 5810 5808 5806 5804 5802 5800 5798 5795 5793 5791 5789
5807 5810 5812 5813 5815 5819 5819 5821 5822 5823 5824 5824 5824 5824 5824 5824 5824 5823 5822 5822 5821 5820 5819 5818 5817 5816 5814 5812 5811 5810 5808 5807 5805 5802 5800 5798 5795 5793 5791 5789 5787 5784 5782 5780
5799 5802 5804 5807 5809 5810 5811 5813 5814 5815 5815 5816 5816 5816 5816 5816 5816 5816 5815 5814 5813 5812 5811 5810 5809 5807 5806 5804 5803 5801 5799 5798 5796 5794 5791 5788 5786 5784 5781 5779 5777 5775 5773 5771
5791 5793 5796 5798 5800 5801 5803 5804 5805 5806 5807 5808 5808 5809 5809 5808 5808 5808 5807 5806 5804 5803 5802 5801 5800 5798 5797 5795 5794 5792 5791 5789 5787 5785 5782 5779 5777 5774 5772 5770 5768 5765 5763 5761
5783 5785 5787 5789 5792 5793 5795 5796 5796 5798 5798 5799 5800 5801 5801 5800 5800 5799 5798 5797 5796 5795 5793 5792 5790 5789 5787 5786 5784 5783 5781 5779 5777 5775 5772 5770 5768 5765 5763 5760 5758 5755 5753 5750
5776 5778 5780 5782 5784 5785 5786 5788 5789 5790 5790 5791 5792 5792 5792 5791 5791 5790 5790 5789 5788 5786 5785 5784 5782 5780 5778 5777 5775 5773 5772 5770 5768 5766 5763 5761 5758 5756 5753 5751 5748 5745 5743 5740